Terminal Aerodrome Forecast
Issued by NWS

Home | Current Version | Previous Version | Graphics & Text | Print | Product List | Glossary On
Versions: 1 2 3 4 5 6 7 8 9 10 11 12 13 14 15 16 17 18 19 20 21 22 23 24 25 26 27 28 29 30 31 32 33 34 35 36 37 38 39 40 41 42 43 44 45 46 47 48 49 50
000
FTUS43 KLOT 301134
TAFGYY
TAF
KGYY 301134Z 3012/3112 00000KT 1 1/2SM BR OVC002
     FM301330 01004KT 4SM HZ SCT005 BKN009
     FM301600 02005KT P6SM SCT010 BKN025
     FM302000 03007KT P6SM SCT025
     FM310300 00000KT 4SM BR SKC=

USA.gov is the U.S. government's official web portal to all federal, state and local government web resources and services.